Year,Month,Day,Hour,Minute,Value (Times are PST for temperature in C)
2010,11,07,00,00,9.90
2010,11,07,00,01,10.00
2010,11,07,00,02,10.10
2010,11,07,00,03,10.10
2010,11,07,00,04,10.10
2010,11,07,00,05,10.10
2010,11,07,00,06,10.10
2010,11,07,00,07,10.10
2010,11,07,00,08,10.10
2010,11,07,00,09,10.10
2010,11,07,00,10,10.10
2010,11,07,00,11,10.10
2010,11,07,00,12,10.10
2010,11,07,00,13,10.10
2010,11,07,00,14,10.10
2010,11,07,00,15,10.10
2010,11,07,00,16,10.10
2010,11,07,00,17,10.10
2010,11,07,00,18,10.10
2010,11,07,00,19,10.10
2010,11,07,00,20,10.10
2010,11,07,00,21,10.10
2010,11,07,00,22,10.10
2010,11,07,00,23,10.10
2010,11,07,00,24,10.20
2010,11,07,00,25,10.20
2010,11,07,00,26,10.20
2010,11,07,00,27,10.20
2010,11,07,00,28,10.20
2010,11,07,00,29,10.20
2010,11,07,00,30,10.20
2010,11,07,00,31,10.10
2010,11,07,00,32,10.10
2010,11,07,00,33,10.10
2010,11,07,00,34,10.10
2010,11,07,00,35,10.10
2010,11,07,00,36,10.10
2010,11,07,00,37,10.10
2010,11,07,00,38,10.10
2010,11,07,00,39,10.00
2010,11,07,00,40,9.90
2010,11,07,00,41,9.90
2010,11,07,00,42,9.90
2010,11,07,00,43,9.90
2010,11,07,00,44,9.90
2010,11,07,00,45,9.90
2010,11,07,00,46,9.90
2010,11,07,00,47,9.90
2010,11,07,00,48,9.90
2010,11,07,00,49,9.80
2010,11,07,00,50,9.80
2010,11,07,00,51,9.80
2010,11,07,00,52,9.80
2010,11,07,00,53,9.70
2010,11,07,00,54,9.70
2010,11,07,00,55,9.70
2010,11,07,00,56,9.70
2010,11,07,00,57,9.70
2010,11,07,00,58,9.60
2010,11,07,00,59,9.60
2010,11,07,01,00,9.60
2010,11,07,01,01,9.50
2010,11,07,01,02,9.50
2010,11,07,01,03,9.50
2010,11,07,01,04,9.50
2010,11,07,01,05,9.40
2010,11,07,01,06,9.50
2010,11,07,01,07,9.40
2010,11,07,01,08,9.40
2010,11,07,01,09,9.40
2010,11,07,01,10,9.40
2010,11,07,01,11,9.40
2010,11,07,01,12,9.40
2010,11,07,01,13,9.40
2010,11,07,01,14,9.30
2010,11,07,01,15,9.40
2010,11,07,01,16,9.30
2010,11,07,01,17,9.30
2010,11,07,01,18,9.30
2010,11,07,01,19,9.30
2010,11,07,01,20,9.30
2010,11,07,01,21,9.30
2010,11,07,01,22,9.30
2010,11,07,01,23,9.30
2010,11,07,01,24,9.30
2010,11,07,01,25,9.30
2010,11,07,01,26,9.30
2010,11,07,01,27,9.30
2010,11,07,01,28,9.30
2010,11,07,01,29,9.30
2010,11,07,01,30,9.30
2010,11,07,01,31,9.30
2010,11,07,01,32,9.30
2010,11,07,01,33,9.30
2010,11,07,01,34,9.30
2010,11,07,01,35,9.30
2010,11,07,01,36,9.30
2010,11,07,01,37,9.30
2010,11,07,01,38,9.20
2010,11,07,01,39,9.20
2010,11,07,01,40,9.20
2010,11,07,01,41,9.20
2010,11,07,01,42,9.20
2010,11,07,01,43,9.20
2010,11,07,01,44,9.20
2010,11,07,01,45,9.20
2010,11,07,01,46,9.20
2010,11,07,01,47,9.10
2010,11,07,01,48,9.10
2010,11,07,01,49,9.10
2010,11,07,01,50,9.10
2010,11,07,01,51,9.10
2010,11,07,01,52,9.10
2010,11,07,01,53,9.10
2010,11,07,01,54,9.10
2010,11,07,01,55,9.10
2010,11,07,01,56,9.10
2010,11,07,01,57,9.10
2010,11,07,01,58,9.10
2010,11,07,01,59,9.10
2010,11,07,05,59,7.80
2010,11,07,06,00,7.80
2010,11,07,06,01,7.70
2010,11,07,06,02,7.70
2010,11,07,06,03,7.70
2010,11,07,06,04,7.70
2010,11,07,06,05,7.70
2010,11,07,06,06,7.70
2010,11,07,06,07,7.70
2010,11,07,06,08,7.70
2010,11,07,06,09,7.70
2010,11,07,06,10,7.70
2010,11,07,06,11,7.70
2010,11,07,06,12,7.60
2010,11,07,06,13,7.60
2010,11,07,06,14,7.60
2010,11,07,06,15,7.60
2010,11,07,06,16,7.60
2010,11,07,06,17,7.60
2010,11,07,06,18,7.60
2010,11,07,06,19,7.50
2010,11,07,06,20,7.50
2010,11,07,06,21,7.50
2010,11,07,06,22,7.50
2010,11,07,06,23,7.50
2010,11,07,06,24,7.40
2010,11,07,06,25,7.40
2010,11,07,06,26,7.40
2010,11,07,06,27,7.40
2010,11,07,06,28,7.40
2010,11,07,06,29,7.40
2010,11,07,06,30,7.40
2010,11,07,06,31,7.40
2010,11,07,06,32,7.50
2010,11,07,06,33,7.50
2010,11,07,06,34,7.50
2010,11,07,06,35,7.50
2010,11,07,06,36,7.50
2010,11,07,06,37,7.50
2010,11,07,06,38,7.50
2010,11,07,06,39,7.50
2010,11,07,06,40,7.60
2010,11,07,06,41,7.60
2010,11,07,06,42,7.60
2010,11,07,06,43,7.60
2010,11,07,06,44,7.60
2010,11,07,06,45,7.60
2010,11,07,06,46,7.60
2010,11,07,06,47,7.60
2010,11,07,06,48,7.60
2010,11,07,06,49,7.60
2010,11,07,06,50,7.50
2010,11,07,06,51,7.50
2010,11,07,06,52,7.50
2010,11,07,06,53,7.50
2010,11,07,06,54,7.50
2010,11,07,06,55,7.40
2010,11,07,06,56,7.40
2010,11,07,06,57,7.40
2010,11,07,06,58,7.40
2010,11,07,06,59,7.40
2010,11,07,07,00,7.40
2010,11,07,07,01,7.30
2010,11,07,07,02,7.30
2010,11,07,07,03,7.30
2010,11,07,07,04,7.30
2010,11,07,07,05,7.30
2010,11,07,07,06,7.30
2010,11,07,07,07,7.30
2010,11,07,07,08,7.30
2010,11,07,07,09,7.30
2010,11,07,07,10,7.40
2010,11,07,07,11,7.40
2010,11,07,07,12,7.40
2010,11,07,07,13,7.50
2010,11,07,07,14,7.60
2010,11,07,07,15,7.60
2010,11,07,07,16,7.70
2010,11,07,07,17,7.80
2010,11,07,07,18,7.80
2010,11,07,07,19,7.80
2010,11,07,07,20,7.90
2010,11,07,07,21,7.90
2010,11,07,07,22,7.90
2010,11,07,07,23,8.00
2010,11,07,07,24,8.00
2010,11,07,07,25,8.00
2010,11,07,07,26,8.00
2010,11,07,07,27,7.90
2010,11,07,07,28,7.80
2010,11,07,07,29,7.70
2010,11,07,07,30,7.60
2010,11,07,07,31,7.50
2010,11,07,07,32,7.40
2010,11,07,07,33,7.30
2010,11,07,07,34,7.30
2010,11,07,07,35,7.20
2010,11,07,07,36,7.10
2010,11,07,07,37,7.00
2010,11,07,07,38,7.00
2010,11,07,07,39,7.00
2010,11,07,07,40,6.90
2010,11,07,07,41,6.90
2010,11,07,07,42,6.90
2010,11,07,07,43,6.90
2010,11,07,07,44,6.90
2010,11,07,07,45,6.80
2010,11,07,07,46,6.80
2010,11,07,07,47,6.80
2010,11,07,07,48,6.80
2010,11,07,07,49,6.80
2010,11,07,07,50,6.80
2010,11,07,07,51,6.80
2010,11,07,07,52,6.70
2010,11,07,07,53,6.70
2010,11,07,07,54,6.70
2010,11,07,07,55,6.70
2010,11,07,07,56,6.70
2010,11,07,07,57,6.60
2010,11,07,07,58,6.60
2010,11,07,07,59,6.60
2010,11,07,08,00,6.60
2010,11,07,08,01,6.60
2010,11,07,08,02,6.60
2010,11,07,08,03,6.60
2010,11,07,08,04,6.60
2010,11,07,08,05,6.60
2010,11,07,08,06,6.60
2010,11,07,08,07,6.60
2010,11,07,08,08,6.70
2010,11,07,08,09,6.70
2010,11,07,08,10,6.70
2010,11,07,08,11,6.80
2010,11,07,08,12,6.80
2010,11,07,08,13,6.90
2010,11,07,08,14,6.90
2010,11,07,08,15,6.90
2010,11,07,08,16,7.00
2010,11,07,08,17,7.00
2010,11,07,08,18,7.00
2010,11,07,08,19,7.00
2010,11,07,08,20,7.10
2010,11,07,08,21,7.20
2010,11,07,08,22,7.20
2010,11,07,08,23,7.30
2010,11,07,08,24,7.30
2010,11,07,08,25,7.30
2010,11,07,08,26,7.30
2010,11,07,08,27,7.30
2010,11,07,08,28,7.30
2010,11,07,08,29,7.30
2010,11,07,08,30,7.30
2010,11,07,08,31,7.30
2010,11,07,08,32,7.30
2010,11,07,08,33,7.30
2010,11,07,08,34,7.40
2010,11,07,08,35,7.40
2010,11,07,08,36,7.50
2010,11,07,08,37,7.50
2010,11,07,08,38,7.60
2010,11,07,08,39,7.60
2010,11,07,08,40,7.70
2010,11,07,08,41,7.80
2010,11,07,08,42,7.80
2010,11,07,08,43,7.90
2010,11,07,08,44,8.00
2010,11,07,08,45,8.10
2010,11,07,08,46,8.10
2010,11,07,08,47,8.20
2010,11,07,08,48,8.30
2010,11,07,08,49,8.30
2010,11,07,08,50,8.40
2010,11,07,08,51,8.50
2010,11,07,08,52,8.60
2010,11,07,08,53,8.70
2010,11,07,08,54,8.70
2010,11,07,08,55,8.70
2010,11,07,08,56,8.80
2010,11,07,08,57,8.80
2010,11,07,08,58,8.90
2010,11,07,08,59,8.90
2010,11,07,09,00,9.00
2010,11,07,09,01,9.00
2010,11,07,09,02,9.10
2010,11,07,09,03,9.20
2010,11,07,09,04,9.20
2010,11,07,09,05,9.20
2010,11,07,09,06,9.30
2010,11,07,09,07,9.30
2010,11,07,09,08,9.40
2010,11,07,09,09,9.40
2010,11,07,09,10,9.50
2010,11,07,09,11,9.60
2010,11,07,09,12,9.60
2010,11,07,09,13,9.70
2010,11,07,09,14,9.70
2010,11,07,09,15,9.70
2010,11,07,09,16,9.70
2010,11,07,09,17,9.80
2010,11,07,09,18,9.90
2010,11,07,09,19,9.90
2010,11,07,09,20,9.90
2010,11,07,09,21,10.00
2010,11,07,09,22,10.10
2010,11,07,09,23,10.10
2010,11,07,09,24,10.10
2010,11,07,09,25,10.20
2010,11,07,09,26,10.30
2010,11,07,09,27,10.30
2010,11,07,09,28,10.30
2010,11,07,09,29,10.40
2010,11,07,09,30,10.40
2010,11,07,09,31,10.40
2010,11,07,09,32,10.40
2010,11,07,09,33,10.50
2010,11,07,09,34,10.60
2010,11,07,09,35,10.60
2010,11,07,09,36,10.60
2010,11,07,09,37,10.60
2010,11,07,09,38,10.60
2010,11,07,09,39,10.60
2010,11,07,09,40,10.60
2010,11,07,09,41,10.60
2010,11,07,09,42,10.60
2010,11,07,09,43,10.60
2010,11,07,09,44,10.60
2010,11,07,09,45,10.60
2010,11,07,09,46,10.60
2010,11,07,09,47,10.60
2010,11,07,09,48,10.50
2010,11,07,09,49,10.40
2010,11,07,09,50,10.40
2010,11,07,09,51,10.40
2010,11,07,09,52,10.40
2010,11,07,09,53,10.60
2010,11,07,09,54,10.60
2010,11,07,09,55,10.50
2010,11,07,09,56,10.40
2010,11,07,09,57,10.40
2010,11,07,09,58,10.40
2010,11,07,09,59,10.40
2010,11,07,10,00,10.40
2010,11,07,10,01,10.40
2010,11,07,10,02,10.40
2010,11,07,10,03,10.60
2010,11,07,10,04,10.60
2010,11,07,10,05,10.60
2010,11,07,10,06,10.60
2010,11,07,10,07,10.60
2010,11,07,10,08,10.70
2010,11,07,10,09,10.70
2010,11,07,10,10,10.80
2010,11,07,10,11,10.80
2010,11,07,10,12,10.80
2010,11,07,10,13,10.80
2010,11,07,10,14,10.80
2010,11,07,10,15,10.90
2010,11,07,10,16,10.90
2010,11,07,10,17,10.80
2010,11,07,10,18,10.80
2010,11,07,10,19,10.80
2010,11,07,10,20,10.80
2010,11,07,10,21,10.70
2010,11,07,10,22,10.70
2010,11,07,10,23,10.60
2010,11,07,10,24,10.60
2010,11,07,10,25,10.60
2010,11,07,10,26,10.60
2010,11,07,10,27,10.60
2010,11,07,10,28,10.60
2010,11,07,10,29,10.60
2010,11,07,10,30,10.60
2010,11,07,10,31,10.60
2010,11,07,10,32,10.60
2010,11,07,10,33,10.60
2010,11,07,10,34,10.60
2010,11,07,10,35,10.60
2010,11,07,10,36,10.60
2010,11,07,10,37,10.60
2010,11,07,10,38,10.60
2010,11,07,10,39,10.60
2010,11,07,10,40,10.60
2010,11,07,10,41,10.50
2010,11,07,10,42,10.50
2010,11,07,10,43,10.60
2010,11,07,10,44,10.70
2010,11,07,10,45,10.80
2010,11,07,10,46,10.80
2010,11,07,10,47,10.80
2010,11,07,10,48,10.80
2010,11,07,10,49,10.70
2010,11,07,10,50,10.70
2010,11,07,10,51,10.70
2010,11,07,10,52,10.60
2010,11,07,10,53,10.60
2010,11,07,10,54,10.60
2010,11,07,10,55,10.60
2010,11,07,10,56,10.60
2010,11,07,10,57,10.60
2010,11,07,10,58,10.60
2010,11,07,10,59,10.70
2010,11,07,11,00,10.80
2010,11,07,11,01,10.80
2010,11,07,11,02,10.90
2010,11,07,11,03,10.80
2010,11,07,11,04,10.90
2010,11,07,11,05,10.90
2010,11,07,11,06,10.90
2010,11,07,11,07,10.80
2010,11,07,11,08,10.90
2010,11,07,11,09,10.90
2010,11,07,11,10,10.90
2010,11,07,11,11,10.90
2010,11,07,11,12,10.90
2010,11,07,11,13,10.80
2010,11,07,11,14,10.80
2010,11,07,11,15,10.80
2010,11,07,11,16,10.70
2010,11,07,11,17,10.60
2010,11,07,11,18,10.60
2010,11,07,11,19,10.50
2010,11,07,11,20,10.40
2010,11,07,11,21,10.40
2010,11,07,11,22,10.40
2010,11,07,11,23,10.40
2010,11,07,11,24,10.40
2010,11,07,11,25,10.40
2010,11,07,11,26,10.40
2010,11,07,11,27,10.40
2010,11,07,11,28,10.50
2010,11,07,11,29,10.60
2010,11,07,11,30,10.60
2010,11,07,11,31,10.60
2010,11,07,11,32,10.60
2010,11,07,11,33,10.60
2010,11,07,11,34,10.60
2010,11,07,11,35,10.60
2010,11,07,11,36,10.70
2010,11,07,11,37,10.60
2010,11,07,11,38,10.60
2010,11,07,11,39,10.60
2010,11,07,11,40,10.60
2010,11,07,11,41,10.60
2010,11,07,11,42,10.60
2010,11,07,11,43,10.60
2010,11,07,11,44,10.60
2010,11,07,11,45,10.60
2010,11,07,11,46,10.60
2010,11,07,11,47,10.60
2010,11,07,11,48,10.60
2010,11,07,11,49,10.60
2010,11,07,11,50,10.70
2010,11,07,11,51,10.60
2010,11,07,11,52,10.60
2010,11,07,11,53,10.60
2010,11,07,11,54,10.70
2010,11,07,11,55,10.80
2010,11,07,11,56,10.80
2010,11,07,11,57,10.90
2010,11,07,11,58,11.00
2010,11,07,11,59,11.00
2010,11,07,12,00,10.90
2010,11,07,12,01,10.90
2010,11,07,12,02,11.00
2010,11,07,12,03,11.10
2010,11,07,12,04,11.10
2010,11,07,12,05,11.20
2010,11,07,12,06,11.20
2010,11,07,12,07,11.20
2010,11,07,12,08,11.20
2010,11,07,12,09,11.10
2010,11,07,12,10,11.10
2010,11,07,12,11,11.10
2010,11,07,12,12,11.20
2010,11,07,12,13,11.20
2010,11,07,12,14,11.20
2010,11,07,12,15,11.30
2010,11,07,12,16,11.30
2010,11,07,12,17,11.30
2010,11,07,12,18,11.30
2010,11,07,12,19,11.30
2010,11,07,12,20,11.30
2010,11,07,12,21,11.30
2010,11,07,12,22,11.30
2010,11,07,12,23,11.30
2010,11,07,12,24,11.20
2010,11,07,12,25,11.30
2010,11,07,12,26,11.40
2010,11,07,12,27,11.40
2010,11,07,12,28,11.40
2010,11,07,12,29,11.40
2010,11,07,12,30,11.40
2010,11,07,12,31,11.20
2010,11,07,12,32,11.10
2010,11,07,12,33,11.00
2010,11,07,12,34,10.90
2010,11,07,12,35,10.80
2010,11,07,12,36,10.70
2010,11,07,12,37,10.70
2010,11,07,12,38,10.60
2010,11,07,12,39,10.60
2010,11,07,12,40,10.60
2010,11,07,12,41,10.60
2010,11,07,12,42,10.70
2010,11,07,12,43,10.80
2010,11,07,12,44,10.90
2010,11,07,12,45,11.00
2010,11,07,12,46,11.10
2010,11,07,12,47,11.10
2010,11,07,12,48,11.10
2010,11,07,12,49,11.10
2010,11,07,12,50,11.00
2010,11,07,12,51,10.90
2010,11,07,12,52,10.80
2010,11,07,12,53,10.70
2010,11,07,12,54,10.70
2010,11,07,12,55,10.70
2010,11,07,12,56,10.70
2010,11,07,12,57,10.60
2010,11,07,12,58,10.60
2010,11,07,12,59,10.60
2010,11,07,13,00,10.60
2010,11,07,13,01,10.70
2010,11,07,13,02,10.70
2010,11,07,13,03,10.70
2010,11,07,13,04,10.70
2010,11,07,13,05,10.70
2010,11,07,13,06,10.80
2010,11,07,13,07,10.80
2010,11,07,13,08,10.80
2010,11,07,13,09,10.90
2010,11,07,13,10,10.90
2010,11,07,13,11,10.90
2010,11,07,13,12,10.80
2010,11,07,13,13,10.70
2010,11,07,13,14,10.60
2010,11,07,13,15,10.60
2010,11,07,13,16,10.60
2010,11,07,13,17,10.70
2010,11,07,13,18,10.60
2010,11,07,13,19,10.60
2010,11,07,13,20,10.60
2010,11,07,13,21,10.60
2010,11,07,13,22,10.60
2010,11,07,13,23,10.70
2010,11,07,13,24,10.80
2010,11,07,13,25,10.80
2010,11,07,13,26,10.90
2010,11,07,13,27,10.80
2010,11,07,13,28,10.80
2010,11,07,13,29,10.70
2010,11,07,13,30,10.60
2010,11,07,13,31,10.60
2010,11,07,13,32,10.70
2010,11,07,13,33,10.70
2010,11,07,13,34,10.60
2010,11,07,13,35,10.60
2010,11,07,13,36,10.60
2010,11,07,13,37,10.60
2010,11,07,13,38,10.50
2010,11,07,13,39,10.40
2010,11,07,13,40,10.40
2010,11,07,13,41,10.40
2010,11,07,13,42,10.40
2010,11,07,13,43,10.40
2010,11,07,13,44,10.40
2010,11,07,13,45,10.40
2010,11,07,13,46,10.40
2010,11,07,13,47,10.40
2010,11,07,13,48,10.40
2010,11,07,13,49,10.30
2010,11,07,13,50,10.30
2010,11,07,13,51,10.30
2010,11,07,13,52,10.30
2010,11,07,13,53,10.30
2010,11,07,13,54,10.30
2010,11,07,13,55,10.30
2010,11,07,13,56,10.30
2010,11,07,13,57,10.30
2010,11,07,13,58,10.30
2010,11,07,13,59,10.40
2010,11,07,14,00,10.40
2010,11,07,14,01,10.40
2010,11,07,14,02,10.30
2010,11,07,14,03,10.30
2010,11,07,14,04,10.30
2010,11,07,14,05,10.20
2010,11,07,14,06,10.20
2010,11,07,14,07,10.20
2010,11,07,14,08,10.20
2010,11,07,14,09,10.20
2010,11,07,14,10,10.10
2010,11,07,14,11,10.10
2010,11,07,14,12,10.10
2010,11,07,14,13,10.10
2010,11,07,14,14,10.10
2010,11,07,14,15,10.10
2010,11,07,14,16,10.10
2010,11,07,14,17,10.10
2010,11,07,14,18,10.10
2010,11,07,14,19,10.10
2010,11,07,14,20,10.10
2010,11,07,14,21,10.10
2010,11,07,14,22,10.10
2010,11,07,14,23,10.20
2010,11,07,14,24,10.20
2010,11,07,14,25,10.20
2010,11,07,14,26,10.20
2010,11,07,14,27,10.20
2010,11,07,14,28,10.20
2010,11,07,14,29,10.20
2010,11,07,14,30,10.30
2010,11,07,14,31,10.30
2010,11,07,14,32,10.40
2010,11,07,14,33,10.40
2010,11,07,14,34,10.40
2010,11,07,14,35,10.40
2010,11,07,14,36,10.40
2010,11,07,14,37,10.40
2010,11,07,14,38,10.40
2010,11,07,14,39,10.40
2010,11,07,14,40,10.40
2010,11,07,14,41,10.30
2010,11,07,14,42,10.40
2010,11,07,14,43,10.40
2010,11,07,14,44,10.40
2010,11,07,14,45,10.40
2010,11,07,14,46,10.40
2010,11,07,14,47,10.40
2010,11,07,14,48,10.40
2010,11,07,14,49,10.40
2010,11,07,14,50,10.40
2010,11,07,14,51,10.50
2010,11,07,14,52,10.40
2010,11,07,14,53,10.40
2010,11,07,14,54,10.40
2010,11,07,14,55,10.40
2010,11,07,14,56,10.40
2010,11,07,14,57,10.40
2010,11,07,14,58,10.40
2010,11,07,14,59,10.40
2010,11,07,15,00,10.40
2010,11,07,15,01,10.40
2010,11,07,15,02,10.40
2010,11,07,15,03,10.50
2010,11,07,15,04,10.60
2010,11,07,15,05,10.60
2010,11,07,15,06,10.60
2010,11,07,15,07,10.60
2010,11,07,15,08,10.60
2010,11,07,15,09,10.70
2010,11,07,15,10,10.70
2010,11,07,15,11,10.80
2010,11,07,15,12,10.80
2010,11,07,15,13,10.80
2010,11,07,15,14,10.80
2010,11,07,15,15,10.90
2010,11,07,15,16,10.90
2010,11,07,15,17,10.90
2010,11,07,15,18,10.90
2010,11,07,15,19,10.90
2010,11,07,15,20,10.90
2010,11,07,15,21,10.90
2010,11,07,15,22,10.90
2010,11,07,15,23,10.90
2010,11,07,15,24,10.90
2010,11,07,15,25,11.00
2010,11,07,15,26,11.10
2010,11,07,15,27,11.10
2010,11,07,15,28,11.10
2010,11,07,15,29,11.10
2010,11,07,15,30,11.10
2010,11,07,15,31,11.10
2010,11,07,15,32,11.10
2010,11,07,15,33,11.10
2010,11,07,15,34,11.10
2010,11,07,15,35,11.10
2010,11,07,15,36,11.10
2010,11,07,15,37,11.10
2010,11,07,15,38,11.10
2010,11,07,15,39,11.10
2010,11,07,15,40,11.10
2010,11,07,15,41,11.10
2010,11,07,15,42,11.10
2010,11,07,15,43,11.10
2010,11,07,15,44,11.10
2010,11,07,15,45,11.10
2010,11,07,15,46,11.10
2010,11,07,15,47,11.10
2010,11,07,15,48,11.10
2010,11,07,15,49,11.00
2010,11,07,15,50,10.90
2010,11,07,15,51,10.90
2010,11,07,15,52,10.90
2010,11,07,15,53,10.90
2010,11,07,15,54,10.80
2010,11,07,15,55,10.80
2010,11,07,15,56,10.70
2010,11,07,15,57,10.70
2010,11,07,15,58,10.60
2010,11,07,15,59,10.60
2010,11,07,16,00,10.60
2010,11,07,16,01,10.60
2010,11,07,16,02,10.60
2010,11,07,16,03,10.50
2010,11,07,16,04,10.40
2010,11,07,16,05,10.40
2010,11,07,16,06,10.40
2010,11,07,16,07,10.40
2010,11,07,16,08,10.40
2010,11,07,16,09,10.40
2010,11,07,16,10,10.40
2010,11,07,16,11,10.40
2010,11,07,16,12,10.30
2010,11,07,16,13,10.30
2010,11,07,16,14,10.30
2010,11,07,16,15,10.20
2010,11,07,16,16,10.20
2010,11,07,16,17,10.20
2010,11,07,16,18,10.20
2010,11,07,16,19,10.20
2010,11,07,16,20,10.10
2010,11,07,16,21,10.10
2010,11,07,16,22,10.10
2010,11,07,16,23,10.10
2010,11,07,16,24,10.10
2010,11,07,16,25,10.00
2010,11,07,16,26,9.90
2010,11,07,16,27,9.90
2010,11,07,16,28,9.90
2010,11,07,16,29,9.90
2010,11,07,16,30,9.90
2010,11,07,16,31,9.90
2010,11,07,16,32,9.80
2010,11,07,16,33,9.80
2010,11,07,16,34,9.70
2010,11,07,16,35,9.70
2010,11,07,16,36,9.70
2010,11,07,16,37,9.70
2010,11,07,16,38,9.70
2010,11,07,16,39,9.60
2010,11,07,16,40,9.60
2010,11,07,16,41,9.60
2010,11,07,16,42,9.60
2010,11,07,16,43,9.50
2010,11,07,16,44,9.50
2010,11,07,16,45,9.50
2010,11,07,16,46,9.50
2010,11,07,16,47,9.50
2010,11,07,16,48,9.40
2010,11,07,16,49,9.40
2010,11,07,16,50,9.40
2010,11,07,16,51,9.40
2010,11,07,16,52,9.30
2010,11,07,16,53,9.30
2010,11,07,16,54,9.30
2010,11,07,16,55,9.30
2010,11,07,16,56,9.30
2010,11,07,16,57,9.20
2010,11,07,16,58,9.20
2010,11,07,16,59,9.20
2010,11,07,17,00,9.20
2010,11,07,17,01,9.20
2010,11,07,17,02,9.10
2010,11,07,17,03,9.10
2010,11,07,17,04,9.10
2010,11,07,17,05,9.00
2010,11,07,17,06,9.00
2010,11,07,17,07,9.00
2010,11,07,17,08,9.00
2010,11,07,17,09,9.00
2010,11,07,17,10,8.90
2010,11,07,17,11,8.90
2010,11,07,17,12,8.90
2010,11,07,17,13,8.90
2010,11,07,17,14,8.80
2010,11,07,17,15,8.80
2010,11,07,17,16,8.80
2010,11,07,17,17,8.80
2010,11,07,17,18,8.70
2010,11,07,17,19,8.70
2010,11,07,17,20,8.70
2010,11,07,17,21,8.70
2010,11,07,17,22,8.70
2010,11,07,17,23,8.70
2010,11,07,17,24,8.70
2010,11,07,17,25,8.70
2010,11,07,17,26,8.70
2010,11,07,17,27,8.70
2010,11,07,17,28,8.70
2010,11,07,17,29,8.70
2010,11,07,17,30,8.70
2010,11,07,17,31,8.70
2010,11,07,17,32,8.70
2010,11,07,17,33,8.70
2010,11,07,17,34,8.70
2010,11,07,17,35,8.70
2010,11,07,17,36,8.60
2010,11,07,17,37,8.60
2010,11,07,17,38,8.60
2010,11,07,17,39,8.60
2010,11,07,17,40,8.50
2010,11,07,17,41,8.50
2010,11,07,17,42,8.50
2010,11,07,17,43,8.50
2010,11,07,17,44,8.50
2010,11,07,17,45,8.50
2010,11,07,17,46,8.50
2010,11,07,17,47,8.50
2010,11,07,17,48,8.50
2010,11,07,17,49,8.40
2010,11,07,17,50,8.40
2010,11,07,17,51,8.40
2010,11,07,17,52,8.40
2010,11,07,17,53,8.40
2010,11,07,17,54,8.30
2010,11,07,17,55,8.30
2010,11,07,17,56,8.30
2010,11,07,17,57,8.30
2010,11,07,17,58,8.20
2010,11,07,17,59,8.20
2010,11,07,18,00,8.20
2010,11,07,18,01,8.20
2010,11,07,18,02,8.20
2010,11,07,18,03,8.20
2010,11,07,18,04,8.20
2010,11,07,18,05,8.20
2010,11,07,18,06,8.20
2010,11,07,18,07,8.20
2010,11,07,18,08,8.20
2010,11,07,18,09,8.20
2010,11,07,18,10,8.20
2010,11,07,18,11,8.20
2010,11,07,18,12,8.20
2010,11,07,18,13,8.20
2010,11,07,18,14,8.20
2010,11,07,18,15,8.20
2010,11,07,18,16,8.20
2010,11,07,18,17,8.20
2010,11,07,18,18,8.20
2010,11,07,18,19,8.20
2010,11,07,18,20,8.20
2010,11,07,18,21,8.20
2010,11,07,18,22,8.20
2010,11,07,18,23,8.10
2010,11,07,18,24,8.10
2010,11,07,18,25,8.10
2010,11,07,18,26,8.10
2010,11,07,18,27,8.10
2010,11,07,18,28,8.10
2010,11,07,18,29,8.10
2010,11,07,18,30,8.10
2010,11,07,18,31,8.10
2010,11,07,18,32,8.00
2010,11,07,18,33,8.00
2010,11,07,18,34,8.00
2010,11,07,18,35,8.00
2010,11,07,18,36,8.00
2010,11,07,18,37,8.00
2010,11,07,18,38,8.00
2010,11,07,18,39,7.90
2010,11,07,18,40,7.90
2010,11,07,18,41,7.90
2010,11,07,18,42,7.90
2010,11,07,18,43,7.90
2010,11,07,18,44,7.80
2010,11,07,18,45,7.80
2010,11,07,18,46,7.80
2010,11,07,18,47,7.80
2010,11,07,18,48,7.80
2010,11,07,18,49,7.70
2010,11,07,18,50,7.70
2010,11,07,18,51,7.70
2010,11,07,18,52,7.70
2010,11,07,18,53,7.60
2010,11,07,18,54,7.60
2010,11,07,18,55,7.60
2010,11,07,18,56,7.60
2010,11,07,18,57,7.60
2010,11,07,18,58,7.60
2010,11,07,18,59,7.60
2010,11,07,19,00,7.60
2010,11,07,19,01,7.50
2010,11,07,19,02,7.50
2010,11,07,19,03,7.50
2010,11,07,19,04,7.50
2010,11,07,19,05,7.50
2010,11,07,19,06,7.40
2010,11,07,19,07,7.40
2010,11,07,19,08,7.40
2010,11,07,19,09,7.40
2010,11,07,19,10,7.40
2010,11,07,19,11,7.40
2010,11,07,19,12,7.40
2010,11,07,19,13,7.30
2010,11,07,19,14,7.30
2010,11,07,19,15,7.30
2010,11,07,19,16,7.30
2010,11,07,19,17,7.30
2010,11,07,19,18,7.30
2010,11,07,19,19,7.30
2010,11,07,19,20,7.30
2010,11,07,19,21,7.30
2010,11,07,19,22,7.30
2010,11,07,19,23,7.30
2010,11,07,19,24,7.30
2010,11,07,19,25,7.30
2010,11,07,19,26,7.30
2010,11,07,19,27,7.30
2010,11,07,19,28,7.30
2010,11,07,19,29,7.30
2010,11,07,19,30,7.30
2010,11,07,19,31,7.30
2010,11,07,19,32,7.20
2010,11,07,19,33,7.20
2010,11,07,19,34,7.20
2010,11,07,19,35,7.20
2010,11,07,19,36,7.20
2010,11,07,19,37,7.20
2010,11,07,19,38,7.20
2010,11,07,19,39,7.20
2010,11,07,19,40,7.20
2010,11,07,19,41,7.10
2010,11,07,19,42,7.10
2010,11,07,19,43,7.00
2010,11,07,19,44,7.00
2010,11,07,19,45,6.90
2010,11,07,19,46,6.90
2010,11,07,19,47,6.80
2010,11,07,19,48,6.80
2010,11,07,19,49,6.80
2010,11,07,19,50,6.80
2010,11,07,19,51,6.80
2010,11,07,19,52,6.80
2010,11,07,19,53,6.90
2010,11,07,19,54,6.90
2010,11,07,19,55,6.90
2010,11,07,19,56,6.90
2010,11,07,19,57,6.90
2010,11,07,19,58,6.90
2010,11,07,19,59,6.90
2010,11,07,20,00,6.90
2010,11,07,20,01,6.90
2010,11,07,20,02,6.80
2010,11,07,20,03,6.80
2010,11,07,20,04,6.80
2010,11,07,20,05,6.80
2010,11,07,20,06,6.80
2010,11,07,20,07,6.80
2010,11,07,20,08,6.80
2010,11,07,20,09,6.80
2010,11,07,20,10,6.80
2010,11,07,20,11,6.80
2010,11,07,20,12,6.80
2010,11,07,20,13,6.80
2010,11,07,20,14,6.80
2010,11,07,20,15,6.80
2010,11,07,20,16,6.80
2010,11,07,20,17,6.80
2010,11,07,20,18,6.80
2010,11,07,20,19,6.80
2010,11,07,20,20,6.80
2010,11,07,20,21,6.80
2010,11,07,20,22,6.80
2010,11,07,20,23,6.80
2010,11,07,20,24,6.80
2010,11,07,20,25,6.80
2010,11,07,20,26,6.80
2010,11,07,20,27,6.80
2010,11,07,20,28,6.80
2010,11,07,20,29,6.80
2010,11,07,20,30,6.80
2010,11,07,20,31,6.80
2010,11,07,20,32,6.70
2010,11,07,20,33,6.70
2010,11,07,20,34,6.70
2010,11,07,20,35,6.70
2010,11,07,20,36,6.70
2010,11,07,20,37,6.70
2010,11,07,20,38,6.70
2010,11,07,20,39,6.70
2010,11,07,20,40,6.70
2010,11,07,20,41,6.70
2010,11,07,20,42,6.60
2010,11,07,20,43,6.70
2010,11,07,20,44,6.70
2010,11,07,20,45,6.70
2010,11,07,20,46,6.70
2010,11,07,20,47,6.70
2010,11,07,20,48,6.80
2010,11,07,20,49,6.80
2010,11,07,20,50,6.80
2010,11,07,20,51,6.80
2010,11,07,20,52,6.80
2010,11,07,20,53,6.80
2010,11,07,20,54,6.80
2010,11,07,20,55,6.80
2010,11,07,20,56,6.80
2010,11,07,20,57,6.80
2010,11,07,20,58,6.80
2010,11,07,20,59,6.80
2010,11,07,21,00,6.80
2010,11,07,21,01,6.80
2010,11,07,21,02,6.80
2010,11,07,21,03,6.80
2010,11,07,21,04,6.80
2010,11,07,21,05,6.80
2010,11,07,21,06,6.90
2010,11,07,21,07,6.90
2010,11,07,21,08,6.90
2010,11,07,21,09,6.90
2010,11,07,21,10,6.90
2010,11,07,21,11,6.90
2010,11,07,21,12,6.90
2010,11,07,21,13,6.90
2010,11,07,21,14,6.90
2010,11,07,21,15,6.90
2010,11,07,21,16,6.90
2010,11,07,21,17,6.90
2010,11,07,21,18,6.90
2010,11,07,21,19,7.00
2010,11,07,21,20,7.00
2010,11,07,21,21,7.00
2010,11,07,21,22,7.00
2010,11,07,21,23,7.10
2010,11,07,21,24,7.10
2010,11,07,21,25,7.10
2010,11,07,21,26,7.10
2010,11,07,21,27,7.10
2010,11,07,21,28,7.20
2010,11,07,21,29,7.20
2010,11,07,21,30,7.20
2010,11,07,21,31,7.20
2010,11,07,21,32,7.20
2010,11,07,21,33,7.20
2010,11,07,21,34,7.20
2010,11,07,21,35,7.20
2010,11,07,21,36,7.20
2010,11,07,21,37,7.20
2010,11,07,21,38,7.20
2010,11,07,21,39,7.20
2010,11,07,21,40,7.20
2010,11,07,21,41,7.30
2010,11,07,21,42,7.30
2010,11,07,21,43,7.30
2010,11,07,21,44,7.30